Total_Precipitation_Accumulation
1.85 1.88 1.82 1.75 1.62 1.53 1.43 1.40 1.31 1.22 1.19 1.18 1.18 1.18 1.15 1.13 1.13 1.12 1.09 1.09 1.14 1.27 1.36 1.40 1.46 1.53 1.61 1.63 1.65 1.71 1.84 1.95 2.04 1.95 1.77 1.73 1.73 1.67 1.57 1.37 1.28 1.25 1.28
1.40 1.41 1.39 1.34 1.24 1.20 1.15 1.12 1.13 1.10 1.07 1.10 1.10 1.10 1.13 1.17 1.18 1.12 1.02 1.00 1.07 1.17 1.25 1.30 1.30 1.29 1.36 1.47 1.53 1.52 1.57 1.68 1.81 1.87 1.75 1.61 1.58 1.57 1.53 1.45 1.22 1.10 1.10
1.17 1.17 1.15 1.18 1.16 1.12 1.15 1.15 1.13 1.09 1.07 1.03 0.99 1.03 1.10 1.15 1.13 1.08 1.01 0.98 1.00 1.06 1.09 1.10 1.10 1.13 1.12 1.17 1.25 1.30 1.32 1.34 1.48 1.54 1.52 1.47 1.42 1.36 1.42 1.41 1.28 1.29 1.09
1.11 1.09 1.01 0.97 1.01 1.04 1.06 1.08 1.05 1.01 1.02 1.04 1.02 0.98 0.98 0.94 0.87 0.83 0.82 0.84 0.85 0.86 0.87 0.86 0.92 1.01 1.03 1.05 1.04 1.08 1.11 1.21 1.30 1.35 1.32 1.32 1.34 1.26 1.29 1.35 1.31 1.24 1.11
1.24 1.20 1.10 1.00 1.00 1.02 1.02 0.99 0.95 0.91 0.86 0.87 0.88 0.83 0.76 0.66 0.58 0.57 0.61 0.63 0.66 0.68 0.70 0.68 0.69 0.81 0.90 0.86 0.80 0.89 1.01 1.14 1.21 1.23 1.16 1.11 1.11 1.18 1.18 1.15 1.15 1.16 1.08
1.35 1.41 1.42 1.32 1.26 1.23 1.14 1.01 0.99 0.98 0.90 0.81 0.76 0.74 0.67 0.52 0.51 0.47 0.53 0.61 0.67 0.67 0.70 0.71 0.64 0.67 0.70 0.67 0.65 0.77 0.93 0.97 1.03 1.12 1.11 1.11 1.11 1.12 1.13 1.12 1.18 1.23 1.23
1.41 1.45 1.43 1.41 1.39 1.34 1.18 1.05 1.03 1.00 0.98 0.95 0.84 0.77 0.73 0.65 0.53 0.44 0.48 0.59 0.68 0.68 0.69 0.68 0.59 0.56 0.61 0.62 0.63 0.66 0.73 0.74 0.83 1.00 1.11 1.09 1.11 1.17 1.23 1.18 1.26 1.31 1.28
1.42 1.43 1.40 1.30 1.29 1.22 1.12 1.09 1.05 0.97 0.95 0.93 0.87 0.79 0.70 0.54 0.39 0.34 0.35 0.48 0.63 0.66 0.66 0.66 0.67 0.64 0.59 0.60 0.59 0.62 0.70 0.76 0.78 0.82 1.01 1.02 0.99 1.07 1.16 1.23 1.32 1.33 1.30
1.41 1.33 1.25 1.17 1.15 1.08 1.05 0.99 0.91 0.85 0.83 0.79 0.72 0.67 0.66 0.51 0.32 0.27 0.30 0.49 0.65 0.63 0.59 0.54 0.56 0.60 0.60 0.58 0.61 0.72 0.79 0.85 0.71 0.71 0.81 0.89 0.91 0.96 0.98 1.08 1.30 1.47 1.42
1.18 1.00 0.94 0.96 0.96 0.92 0.87 0.81 0.77 0.75 0.74 0.66 0.59 0.62 0.63 0.58 0.43 0.35 0.37 0.49 0.60 0.57 0.58 0.55 0.50 0.50 0.51 0.52 0.60 0.74 0.83 0.83 0.75 0.76 0.92 1.01 0.99 1.06 1.03 1.09 1.34 1.44 1.39
1.02 0.87 0.84 0.83 0.77 0.75 0.74 0.74 0.71 0.66 0.69 0.67 0.66 0.62 0.56 0.48 0.37 0.32 0.32 0.38 0.50 0.54 0.55 0.59 0.53 0.43 0.40 0.42 0.54 0.62 0.69 0.67 0.78 0.95 1.05 1.07 1.09 1.14 1.10 1.08 1.24 1.34 1.41
0.95 0.88 0.83 0.74 0.64 0.63 0.75 0.74 0.70 0.71 0.74 0.72 0.69 0.62 0.49 0.39 0.29 0.24 0.25 0.29 0.35 0.49 0.58 0.59 0.51 0.41 0.38 0.39 0.48 0.55 0.57 0.66 0.85 1.04 1.13 1.11 1.03 1.01 1.02 1.01 1.14 1.21 1.25
0.93 0.91 0.80 0.68 0.69 0.69 0.74 0.73 0.65 0.63 0.58 0.54 0.52 0.52 0.45 0.37 0.31 0.25 0.26 0.29 0.33 0.41 0.47 0.44 0.39 0.39 0.40 0.52 0.54 0.55 0.65 0.86 0.98 1.06 1.13 1.13 1.03 0.96 0.94 0.90 1.00 1.14 1.13
1.01 0.96 0.81 0.71 0.66 0.61 0.60 0.54 0.50 0.50 0.49 0.46 0.43 0.41 0.39 0.39 0.36 0.34 0.34 0.34 0.36 0.41 0.44 0.43 0.46 0.50 0.54 0.63 0.71 0.82 0.86 0.92 0.93 1.01 1.06 1.01 0.91 0.87 0.91 0.91 1.01 1.11 1.15
0.99 0.88 0.76 0.63 0.56 0.51 0.43 0.36 0.32 0.31 0.30 0.32 0.31 0.29 0.33 0.35 0.31 0.31 0.32 0.32 0.34 0.34 0.35 0.51 0.71 0.77 0.84 0.91 0.93 0.99 1.05 0.99 0.92 0.93 0.96 0.97 0.93 0.91 0.90 0.87 0.96 1.05 1.14
0.90 0.72 0.60 0.51 0.44 0.37 0.33 0.32 0.25 0.20 0.17 0.15 0.16 0.16 0.18 0.20 0.19 0.20 0.23 0.26 0.28 0.31 0.37 0.61 0.73 0.80 0.87 0.89 0.90 0.94 1.01 1.04 0.97 0.91 0.92 0.93 0.92 0.89 0.91 0.87 0.88 1.01 1.11
0.73 0.56 0.44 0.39 0.38 0.34 0.32 0.38 0.39 0.25 0.16 0.13 0.15 0.16 0.16 0.15 0.15 0.18 0.21 0.26 0.31 0.41 0.54 0.70 0.74 0.79 0.84 0.80 0.79 0.84 0.88 0.90 0.83 0.81 0.80 0.80 0.79 0.80 0.86 0.87 0.81 0.82 0.85
0.43 0.33 0.29 0.32 0.31 0.26 0.24 0.27 0.31 0.36 0.36 0.28 0.21 0.18 0.16 0.18 0.19 0.22 0.27 0.33 0.46 0.56 0.64 0.69 0.70 0.71 0.75 0.74 0.72 0.73 0.72 0.67 0.64 0.66 0.73 0.75 0.75 0.75 0.75 0.76 0.70 0.68 0.74
0.29 0.27 0.25 0.24 0.21 0.19 0.17 0.19 0.21 0.26 0.35 0.37 0.31 0.22 0.20 0.26 0.30 0.33 0.38 0.45 0.56 0.60 0.59 0.61 0.63 0.65 0.65 0.70 0.69 0.63 0.59 0.56 0.54 0.55 0.59 0.65 0.68 0.66 0.67 0.63 0.58 0.52 0.60
0.22 0.19 0.21 0.20 0.19 0.16 0.16 0.17 0.19 0.22 0.27 0.32 0.33 0.26 0.27 0.37 0.48 0.49 0.47 0.47 0.48 0.49 0.50 0.52 0.51 0.49 0.52 0.54 0.52 0.49 0.48 0.49 0.48 0.48 0.51 0.51 0.51 0.54 0.56 0.53 0.50 0.49 0.55
0.16 0.13 0.14 0.15 0.17 0.15 0.15 0.17 0.19 0.20 0.25 0.29 0.28 0.25 0.31 0.37 0.46 0.47 0.46 0.44 0.42 0.44 0.47 0.45 0.42 0.39 0.39 0.41 0.42 0.43 0.43 0.44 0.45 0.47 0.47 0.43 0.42 0.43 0.42 0.41 0.42 0.41 0.42
0.16 0.14 0.14 0.16 0.15 0.15 0.17 0.19 0.21 0.22 0.22 0.26 0.27 0.24 0.29 0.34 0.42 0.46 0.47 0.44 0.41 0.40 0.40 0.40 0.36 0.35 0.34 0.36 0.37 0.36 0.35 0.38 0.42 0.45 0.43 0.39 0.37 0.36 0.34 0.34 0.37 0.39 0.37
0.15 0.13 0.12 0.12 0.11 0.12 0.14 0.15 0.16 0.16 0.18 0.23 0.27 0.27 0.29 0.34 0.40 0.45 0.45 0.38 0.31 0.29 0.31 0.34 0.34 0.32 0.30 0.29 0.29 0.29 0.26 0.27 0.30 0.34 0.35 0.33 0.33 0.30 0.29 0.30 0.30 0.34 0.35
0.12 0.11 0.10 0.09 0.10 0.11 0.12 0.13 0.13 0.14 0.16 0.20 0.27 0.25 0.24 0.30 0.33 0.34 0.34 0.29 0.23 0.22 0.23 0.25 0.28 0.27 0.24 0.23 0.23 0.22 0.22 0.21 0.20 0.21 0.24 0.27 0.30 0.26 0.25 0.25 0.26 0.28 0.32
0.09 0.10 0.11 0.10 0.10 0.10 0.10 0.09 0.10 0.12 0.15 0.21 0.26 0.23 0.19 0.20 0.22 0.23 0.23 0.24 0.22 0.21 0.20 0.20 0.20 0.19 0.19 0.19 0.18 0.17 0.18 0.18 0.16 0.16 0.17 0.20 0.24 0.23 0.25 0.28 0.28 0.29 0.31
0.07 0.08 0.09 0.08 0.09 0.09 0.07 0.08 0.11 0.13 0.16 0.18 0.19 0.18 0.17 0.17 0.18 0.19 0.18 0.19 0.19 0.19 0.18 0.17 0.16 0.15 0.16 0.19 0.18 0.18 0.17 0.15 0.14 0.16 0.17 0.19 0.24 0.25 0.27 0.30 0.30 0.33 0.35